Flag for Germany Weather past 2 weeks in Walsrode, Lower Saxony, Germany

Now
63 °F

Partly sunny.


Feels Like: 63 °F
Forecast: 42 / 67 °F
Wind: 17 mph from Northwest

Location: Fassberg

Current Time: Jun 3, 2015 at 5:55:02 PM

Latest Report: Jun 3, 2015 at 5:20 PM


Visibility: N/A

Pressure: 30.18 "Hg

Humidity: 49%

Dew point: 43 °F

Location of WalsrodeLocation

Historic Weather in Walsrode — Graph

°F

Walsrode temperature yesterday

Maximum temperature yesterday: 68 °F (at 2:20 PM)
Minimum temperature yesterday: 48 °F (at 12:20 AM)
Average temperature yesterday: 61 °F

Past Weeks' High & Low Weather Summary

 TemperatureHumidityPressure
High68 °F (May 24, 4:20 PM)100% (May 24, 2:20 AM)30.30 "Hg (May 24, 2:20 AM)
Low34 °F (May 24, 5:20 AM)36% (May 19, 4:20 PM)29.68 "Hg (May 29, 8:20 PM)
Average53 °F69%29.99 "Hg
* Reported May 19 4:20 PM — Jun 3 4:20 PM, Walsrode, Weather by CustomWeather, © 2015

Note: Actual official high and low records may vary slightly from our data, if they occured in-between our weather recording intervals... More about our weather records

Advertising

Walsrode weather history for previous 24 hours

 ConditionsComfort  
Time TempWeatherWind HumidityBarometerVisibility
4:20 PM
Wed, Jun 3
63 °FScattered clouds.13 mph52%30.18 "HgN/A
3:20 PM63 °FPartly sunny.18 mph49%30.15 "HgN/A
2:20 PM61 °FPartly sunny.21 mph45%30.12 "HgN/A
1:20 PM61 °FBroken clouds.20 mph55%30.09 "HgN/A
12:20 PM63 °FPartly sunny.17 mph56%30.07 "HgN/A
11:20 AM64 °FScattered clouds.17 mph49%30.04 "HgN/A
10:20 AM63 °FBroken clouds.14 mph56%30.01 "HgN/A
9:20 AM61 °FPartly sunny.13 mph63%29.98 "HgN/A
8:20 AM61 °FPartly sunny.15 mph72%29.95 "HgN/A
7:20 AM61 °FPartly sunny.15 mph72%29.95 "HgN/A
6:20 AM59 °FPartly sunny.14 mph82%29.92 "HgN/A
5:20 AM61 °FPartly cloudy.18 mph68%29.92 "HgN/A
4:20 AM64 °FPartly cloudy.18 mph68%29.89 "HgN/A
3:20 AM66 °FPartly cloudy.20 mph60%29.86 "HgN/A
2:20 AM66 °FPassing clouds.16 mph60%29.86 "HgN/A
1:20 AM66 °FPartly cloudy.15 mph60%29.86 "HgN/A
12:20 AM66 °FPassing clouds.18 mph64%29.86 "HgN/A
11:20 PM
Tue, Jun 2
66 °FPassing clouds.20 mph64%29.86 "HgN/A
10:20 PM66 °FPartly sunny.20 mph64%29.86 "HgN/A
9:20 PM66 °FPartly sunny.14 mph64%29.83 "HgN/A
8:20 PM66 °FBroken clouds.21 mph64%29.86 "HgN/A
7:20 PM68 °FPartly sunny.17 mph60%29.83 "HgN/A
6:20 PM68 °FPartly sunny.12 mph56%29.83 "HgN/A
5:20 PM68 °FPartly sunny.15 mph56%29.80 "HgN/A
5:00 PM68 °FPartly sunny.20 mph56%29.80 "HgN/A
Weather by CustomWeather, © 2015

See weather overviewHow to use our weather pages